Location: Big Sable Point
(44.0575°N, 86.5149°W)
Time: 11:13:44
(UTC-04:00)

Tiangong 2 - Pass Details

Date: 20 July 2018
Orbit: 384 x 395 km, 42.8° (Epoch: 15 August)

Event Time Altitude Azimuth Distance (km) Brightness Sun altitude
Rises 00:08:33 0° 274° (W) 2,260 5.4 -21.0°
Reaches altitude 10° 00:10:59 10° 256° (WSW) 1,402 4.0 -21.2°
Enters shadow 00:11:11 11° 253° (WSW) 1,343 3.9 -21.2°
